Date,TemperatureHighF,TemperatureAvgF,TemperatureLowF,DewpointHighF,DewpointAvgF,DewpointLowF,HumidityHigh,HumidityAvg,HumidityLow,PressureMaxIn,PressureMinIn,WindSpeedMaxMPH,WindSpeedAvgMPH,GustSpeedMaxMPH,PrecipitationSumIn
2013-3-1,34,31,27,31,24,20,89,75,66,30.26,30.11,0,0,0,0.02
2013-3-2,32,27,14,20,13,6,77,57,34,30.28,30.23,0,0,0,0.00
2013-3-3,36,24,12,19,14,6,83,65,39,30.27,30.13,0,0,0,0.00
2013-3-4,39,34,28,30,26,17,80,71,63,30.14,29.92,0,0,0,0.01
2013-3-5,37,34,31,32,29,25,91,84,73,30.11,29.87,0,0,0,0.16
2013-3-6,34,30,27,25,23,20,78,72,64,30.41,30.11,0,0,0,0.05
2013-3-7,38,32,28,28,25,21,81,74,63,30.48,30.40,0,0,0,0.00
2013-3-8,49,38,28,38,30,22,83,75,62,30.50,30.27,0,0,0,0.00
2013-3-9,54,45,38,44,38,32,86,76,65,30.27,29.80,0,0,0,0.29
2013-3-10,55,52,48,52,48,42,91,88,73,29.81,29.58,0,0,0,1.18
2013-3-11,51,38,34,49,34,26,91,85,75,29.97,29.65,0,0,0,0.01
2013-3-12,44,35,27,34,25,19,83,70,52,30.19,29.97,0,0,0,0.01
2013-3-13,40,30,25,22,18,12,77,64,35,30.44,30.19,0,0,0,0.00
2013-3-14,48,35,24,32,26,19,86,72,48,30.43,30.14,0,0,0,0.00
2013-3-15,58,43,29,44,36,26,89,75,54,30.13,29.67,0,0,0,0.00
2013-3-16,48,40,34,42,33,26,91,76,57,30.15,29.65,0,0,0,0.00
2013-3-17,42,36,32,30,26,22,76,67,54,30.21,29.93,0,0,0,0.00
2013-3-18,46,36,28,38,30,16,90,78,60,30.00,29.73,0,0,0,0.03
2013-3-19,47,32,22,18,14,4,69,49,19,30.22,29.98,0,0,0,0.00
2013-3-20,36,27,20,18,9,1,69,46,25,30.28,30.15,0,0,0,0.00
2013-3-21,38,26,14,12,7,3,72,47,24,30.18,30.06,0,0,0,0.00
2013-3-22,48,34,19,24,14,7,70,47,20,30.13,30.03,0,0,0,0.00
2013-3-23,53,42,35,24,22,16,60,45,25,30.13,29.98,0,0,0,0.00
2013-3-24,36,33,31,31,29,22,91,86,57,29.99,29.66,0,0,0,0.15
2013-3-25,36,33,29,30,27,25,91,80,66,30.19,29.79,0,0,0,0.33
2013-3-26,44,36,33,28,26,22,78,66,47,30.35,30.18,0,0,0,0.00
2013-3-27,47,36,27,29,25,20,85,67,36,30.42,30.35,0,0,0,0.00
2013-3-28,50,37,24,32,27,19,83,67,44,30.43,30.33,0,0,0,0.00
2013-3-29,61,47,37,37,32,28,79,60,30,30.34,30.24,0,0,0,0.00
2013-3-30,58,47,33,45,38,29,88,70,49,30.25,29.92,0,0,0,0.00
2013-3-31,66,53,43,48,39,25,91,64,32,29.97,29.81,0,0,0,0.00